WetterOnline ( https://www.wetteronline.de )

Wetter aktuell Würselen

Aktuelles Wetter: Aachen-Orsbach (231m)

6-stündlich | Neueste Meldungen
Ortszeit Temperatur Wetter
Fr, 14.08. 20:00 25.1° C bewölkt
Fr, 14.08. 14:00 26.2° C wolkig
Fr, 14.08. 8:00 20.9° C bedeckt
Fr, 14.08. 2:00 20.5° C wolkenlos
Do, 13.08. 20:00 26.3° C wolkig
Do, 13.08. 14:00 30.0° C bedeckt
Do, 13.08. 8:00 20.0° C bedeckt
Do, 13.08. 2:00 22.5° C bedeckt
Ortszeit Temperatur Wetter
Sa, 15.08. 1:30 20.0° C wolkenlos
Sa, 15.08. 1:20 20.0° C wolkenlos
Sa, 15.08. 1:10 20.3° C wolkenlos
Sa, 15.08. 1:00 20.5° C fast wolkenlos
Sa, 15.08. 0:50 20.5° C fast wolkenlos
Sa, 15.08. 0:40 20.3° C leicht bewölkt
Sa, 15.08. 0:30 20.1° C wolkig
Sa, 15.08. 0:00 21.0° C bewölkt
Fr, 14.08. 23:30 21.3° C bewölkt
Fr, 14.08. 23:00 21.9° C bedeckt
Fr, 14.08. 22:30 21.5° C bedeckt
Ortszeit Relative Feuchte Sichtweite
Fr, 14.08. 20:00 54% 60 km
Fr, 14.08. 14:00 53% 65 km
Fr, 14.08. 8:00 66% 65 km
Fr, 14.08. 2:00 74% 50 km
Do, 13.08. 20:00 63% 45 km
Do, 13.08. 14:00 48% 55 km
Do, 13.08. 8:00 87% 35 km
Do, 13.08. 2:00 68% 50 km
Ortszeit Relative Feuchte Sichtweite
Sa, 15.08. 1:30 87% 20 km
Sa, 15.08. 1:20 87% -
Sa, 15.08. 1:10 85% -
Sa, 15.08. 1:00 83% 23 km
Sa, 15.08. 0:50 83% -
Sa, 15.08. 0:40 85% -
Sa, 15.08. 0:30 84% 28 km
Sa, 15.08. 0:00 81% 35 km
Fr, 14.08. 23:30 80% 45 km
Fr, 14.08. 23:00 74% 55 km
Fr, 14.08. 22:30 77% 50 km
Ortszeit Niederschlagsmenge Niederschlagsart
Fr, 14.08. 20:00 0.0 l/m2 in 12 Std. -
Fr, 14.08. 14:00 0.0 l/m2 in 6 Std. -
Fr, 14.08. 8:00 0.0 l/m2 in 12 Std. -
Fr, 14.08. 2:00 0.0 l/m2 in 6 Std. -
Do, 13.08. 20:00 0.0 l/m2 in 12 Std. -
Do, 13.08. 14:00 0.0 l/m2 in 6 Std. -
Do, 13.08. 8:00 0.5 l/m2 in 12 Std. Regen
Do, 13.08. 2:00 0.0 l/m2 in 6 Std. -
Ortszeit Niederschlagsmenge Niederschlagsart
Sa, 15.08. 1:30 0.0 l/m2 in 1 Std. -
Sa, 15.08. 1:20 keine Meldung -
Sa, 15.08. 1:10 keine Meldung -
Sa, 15.08. 1:00 0.0 l/m2 in 1 Std. -
Sa, 15.08. 0:50 keine Meldung -
Sa, 15.08. 0:40 keine Meldung -
Sa, 15.08. 0:30 0.0 l/m2 in 1 Std. -
Sa, 15.08. 0:00 0.1 l/m2 in 1 Std. Regen
Fr, 14.08. 23:30 0.0 l/m2 in 1 Std. -
Fr, 14.08. 23:00 0.0 l/m2 in 1 Std. Regen
Fr, 14.08. 22:30 0.0 l/m2 in 1 Std. -
Ortszeit Stärke Spitze Richtung
km/h Bft. km/h Grad Sektor
Fr, 14.08. 20:00 11 2 36 290° W
Fr, 14.08. 14:00 20 4 35 200° S
Fr, 14.08. 8:00 14 3 22 210° SW
Fr, 14.08. 2:00 13 3 17 200° S
Do, 13.08. 20:00 9 2 33 280° W
Do, 13.08. 14:00 7 2 18 280° W
Do, 13.08. 8:00 11 2 22 130° SO
Do, 13.08. 2:00 11 2 37 90° O
Ortszeit Stärke Spitze Richtung
km/h Bft. km/h Grad Sektor
Sa, 15.08. 1:30 4 1 7 360° N
Sa, 15.08. 1:20 4 1 - 360° N
Sa, 15.08. 1:10 6 1 - 320° NW
Sa, 15.08. 1:00 6 1 9 330° NW
Sa, 15.08. 0:50 6 1 - 330° NW
Sa, 15.08. 0:40 4 1 - 330° NW
Sa, 15.08. 0:30 7 2 11 290° W
Sa, 15.08. 0:00 4 1 7 270° W
Fr, 14.08. 23:30 4 1 7 130° SO
Fr, 14.08. 23:00 0 0 14 - -
Fr, 14.08. 22:30 6 1 9 230° SW
Ortszeit Untergrenze Bedeckung Gattung
total tief tief mittel hoch
Fr, 14.08. 20:00 2100 m 8/8 6/8 - - -
Fr, 14.08. 14:00 1500 m 6/8 5/8 - - -
Fr, 14.08. 8:00 3300 m 8/8 8/8 - - -
Fr, 14.08. 2:00 - 0/8 0/8 - - -
Do, 13.08. 20:00 1500 m 6/8 2/8 - - -
Do, 13.08. 14:00 5100 m 8/8 8/8 - - -
Do, 13.08. 8:00 3000 m 8/8 8/8 - - -
Do, 13.08. 2:00 3900 m 8/8 8/8 - - -
Ortszeit Bedeckungsgrad in Achtel und Wolkenuntergrenze
Sa, 15.08. 1:30 keine Wolken
Sa, 15.08. 1:20 keine Wolken
Sa, 15.08. 1:10 keine Wolken
Sa, 15.08. 1:00 1(10500m)
Sa, 15.08. 0:50 1(10500m)
Sa, 15.08. 0:40 2(9000m) 3(10500m)
Sa, 15.08. 0:30 7(9000m) 8(10500m)
Sa, 15.08. 0:00 1(1290m) 7(2700m) 7(9000m)
Fr, 14.08. 23:30 2(1200m) 7(1500m) 7(3000m)
Fr, 14.08. 23:00 6(1290m) 8(1500m)
Fr, 14.08. 22:30 4(1410m) 7(1500m) 8(2100m)
Ortszeit Luftdruck NN (hPa) Tendenz (hPa in 3 Std.)
Fr, 14.08. 20:00 1013 + 0,3
Fr, 14.08. 14:00 1013 0,0
Fr, 14.08. 8:00 1013 + 0,7
Fr, 14.08. 2:00 1013 + 0,5
Do, 13.08. 20:00 1011 + 0,2
Do, 13.08. 14:00 1011 - 0,3
Do, 13.08. 8:00 1012 0,0
Do, 13.08. 2:00 1011 - 1,2
Ortszeit Luftdruck NN (hPa) Tendenz (hPa in 3 Std.)
Sa, 15.08. 1:30 1015 + 0,6
Sa, 15.08. 1:20 1015 keine Meldung
Sa, 15.08. 1:10 1015 keine Meldung
Sa, 15.08. 1:00 1015 + 0,8
Sa, 15.08. 0:50 1015 keine Meldung
Sa, 15.08. 0:40 1015 keine Meldung
Sa, 15.08. 0:30 1015 + 1,2
Sa, 15.08. 0:00 1014 + 1,1
Fr, 14.08. 23:30 1015 + 1,6
Fr, 14.08. 23:00 1014 + 1,5
Fr, 14.08. 22:30 1014 + 1,5
Ortszeit Schneehöhe (cm)
Fr, 14.08. 20:00 -
Fr, 14.08. 14:00 -
Fr, 14.08. 8:00 -
Fr, 14.08. 2:00 -
Do, 13.08. 20:00 -
Do, 13.08. 14:00 -
Do, 13.08. 8:00 -
Do, 13.08. 2:00 -
Ortszeit Schneehöhe (cm)
Sa, 15.08. 1:30 -
Sa, 15.08. 1:20 -
Sa, 15.08. 1:10 -
Sa, 15.08. 1:00 -
Sa, 15.08. 0:50 -
Sa, 15.08. 0:40 -
Sa, 15.08. 0:30 -
Sa, 15.08. 0:00 -
Fr, 14.08. 23:30 -
Fr, 14.08. 23:00 -
Fr, 14.08. 22:30 -
Link zu dieser Seite / Seite empfehlen

Das Wetter in ...